Clearfield, PA

1:47 PM EDT on April 28, 2017 (GMT -0400)
Clearfield-Lawrence

Weather History for KFIG - August, 2012

Change the Weather History Date:

Thursday, August 30, 2012

  Actual Average (KDUJ) Record (KDUJ)
Temperature  
Mean Temperature 64 °F -  
Max Temperature 82 °F 77 °F 91 °F (1991)
Min Temperature 46 °F 57 °F 40 °F (1976)
Degree Days  
Heating Degree Days 1    
Growing Degree Days 14 (Base 50)    
Moisture  
Dew Point 50 °F    
Average Humidity 75    
Maximum Humidity 100    
Minimum Humidity 26    
Precipitation  
Precipitation 0.00 in - - ()
Sea Level Pressure  
Sea Level Pressure 30.13 in    
Wind  
Wind Speed 2 mph (WNW)    
Max Wind Speed 7 mph    
Max Gust Speed -    
Visibility 7 miles    
Events Fog    
Averages and records for this station are not official NWS values.
T = Trace of Precipitation, MM = Missing Value Source: NWS Daily Summary

Daily Weather History Graph

Daily Weather History Graph

Search for Another Location

Airport or City:

Trip Planner

Search our weather history database for the weather conditions in past years. The results will help you decide how hot, cold, wet, or windy it might be!

Date:

Astronomy

Aug. 30, 2012 Rise Set
Actual Time 6:38 AM EDT 7:48 PM EDT
Civil Twilight 6:10 AM EDT 8:16 PM EDT
Nautical Twilight 5:36 AM EDT 8:50 PM EDT
Astronomical Twilight 5:00 AM EDT 9:26 PM EDT
Moon 7:01 PM EDT (8/30) 5:37 AM EDT (8/30)
Length of Visible Light 14h 06m
Length of Day
13h 09m
Waxing Gibbous, 99% of the Moon is Illuminated
Aug 30
Waxing Gibbous
Aug 31
Full
Sep 8
Last Quarter
Sep 15
New
Sep 22
First Quarter

Hourly Weather History & Observations

Time (EDT) Temp. Dew Point Humidity Pressure Visibility Wind Dir Wind Speed Gust Speed Precip Events Conditions
12:54 AM 53.1 °F 51.1 °F 93% 30.11 in 10.0 mi North 3.5 mph - N/A   Clear
1:54 AM 53.1 °F 51.1 °F 93% 30.11 in 10.0 mi Calm Calm - N/A   Clear
2:54 AM 51.1 °F 48.9 °F 92% 30.10 in 10.0 mi North 3.5 mph - N/A   Clear
3:54 AM 50.0 °F 48.9 °F 96% 30.10 in 10.0 mi Calm Calm - N/A   Clear
4:54 AM 48.0 °F 46.9 °F 96% 30.11 in 10.0 mi North 4.6 mph - N/A   Clear
5:54 AM 48.0 °F 46.0 °F 93% 30.12 in 10.0 mi Calm Calm - N/A   Clear
6:25 AM 46.4 °F 44.6 °F 93% 30.13 in 2.5 mi Calm Calm - N/A   Partly Cloudy
6:28 AM 46.4 °F 46.4 °F 100% 30.14 in 0.8 mi Calm Calm - N/A   Mist
6:37 AM 46.4 °F 46.4 °F 100% 30.14 in 0.2 mi Calm Calm - N/A Fog Fog
6:54 AM 48.9 °F 48.0 °F 97% 30.14 in 0.2 mi Calm Calm - N/A Fog Fog
7:54 AM 50.0 °F 50.0 °F 100% 30.16 in 0.2 mi Calm Calm - N/A Fog Fog
8:54 AM 52.0 °F 52.0 °F 100% 30.17 in 0.2 mi Calm Calm - N/A Fog Fog
9:42 AM 53.6 °F 53.6 °F 100% 30.17 in 1.0 mi Calm Calm - N/A   Mist
9:45 AM 53.6 °F 53.6 °F 100% 30.17 in 3.0 mi Calm Calm - N/A   Mostly Cloudy
9:54 AM 55.0 °F 54.0 °F 96% 30.18 in 9.0 mi Calm Calm - N/A   Scattered Clouds
10:54 AM 66.9 °F 53.1 °F 61% 30.18 in 10.0 mi Variable 4.6 mph - N/A   Clear
11:54 AM 72.0 °F 52.0 °F 49% 30.17 in 10.0 mi SW 6.9 mph - N/A   Clear
12:54 PM 75.0 °F 51.1 °F 43% 30.16 in 10.0 mi Calm Calm - N/A   Clear
1:54 PM 78.1 °F 51.1 °F 39% 30.14 in 10.0 mi Calm Calm - N/A   Clear
2:54 PM 81.0 °F 48.9 °F 33% 30.13 in 10.0 mi Calm Calm - N/A   Clear
3:54 PM 82.0 °F 48.0 °F 30% 30.10 in 10.0 mi SSW 5.8 mph - N/A   Clear
4:54 PM 82.0 °F 46.9 °F 29% 30.10 in 10.0 mi Variable 5.8 mph - N/A   Clear
5:54 PM 81.0 °F 43.0 °F 26% 30.11 in 10.0 mi SW 6.9 mph - N/A   Clear
6:54 PM 78.1 °F 46.0 °F 32% 30.11 in 10.0 mi SW 4.6 mph - N/A   Clear
8:54 PM 62.1 °F 55.0 °F 78% 30.13 in 10.0 mi North 4.6 mph - N/A   Clear
9:54 PM 61.0 °F 54.0 °F 78% 30.14 in 10.0 mi Calm Calm - N/A   Clear
10:54 PM 55.9 °F 52.0 °F 87% 30.14 in 10.0 mi NNW 5.8 mph - N/A   Clear
11:54 PM 55.9 °F 50.0 °F 80% 30.12 in 10.0 mi Calm Calm - N/A   Clear